Location: Gleizolles
(44.4833°N, 6.7667°E)
Time: 00:24:47
(UTC+00:00)

Vanguard 2 Rocket - Pass Details

Date: 15 June 2024
Orbit: 555 x 3302 km, 32.9° (Epoch: 24 July)

Event Time Altitude Azimuth Distance (km) Brightness Sun altitude
Rises 10:09:03 0° 272° (W) 5,479 10.7 62.7°
Reaches altitude 10° 10:15:12 10° 252° (WSW) 3,809 10.1 63.5°
Maximum altitude 10:19:41 14° 224° (SW) 2,968 9.8 64.0°
Drops below altitude 10° 10:23:15 10° 193° (SSW) 2,885 9.8 64.4°
Sets 10:26:49 0° 168° (SSE) 3,438 10.2 64.8°
